Theta_e
338 336 337 335 338 340 340 338 337 337 340 341 341 342 341 339 339 340 339 338 338 339 341 341 340 337 333 328 336 335 335 334 334 338 339 340 341 338 338 338 338 340 341
337 336 336 337 335 335 335 335 336 337 339 340 339 339 336 334 338 338 340 338 336 335 337 339 338 335 332 321 333 333 332 336 335 332 337 338 338 337 337 337 337 339 340
336 336 335 336 336 336 336 335 334 332 332 332 335 338 338 338 337 339 340 338 335 333 333 332 334 333 327 317 323 334 332 335 337 337 332 335 336 336 336 336 336 337 337
332 333 332 333 334 335 335 335 335 336 336 335 336 337 337 338 337 338 339 337 332 328 326 324 321 321 319 318 318 319 330 332 333 337 336 332 337 336 334 333 339 340 339
330 331 333 334 333 331 333 335 336 336 336 335 336 336 335 335 335 335 335 336 335 330 329 327 324 322 321 319 317 318 324 331 332 334 336 337 336 338 336 339 339 338 336
323 329 328 324 322 327 330 330 334 335 334 333 334 334 335 335 335 332 332 334 335 335 332 329 327 327 326 326 325 318 326 329 331 333 334 334 337 337 339 331 330 331 333
316 320 320 320 319 319 320 319 318 317 319 323 327 330 331 332 332 333 333 332 333 333 333 332 329 328 328 329 328 327 323 326 329 330 332 331 336 336 338 327 331 331 330
313 314 317 318 319 319 320 321 320 320 319 318 319 318 319 326 332 332 332 332 333 332 332 332 332 332 328 327 328 329 328 325 328 328 328 329 332 337 339 332 330 333 333
309 311 313 316 318 319 319 320 320 320 320 319 319 318 318 320 324 333 332 333 332 332 332 332 332 331 332 331 328 325 325 327 328 329 329 330 332 334 336 332 333 336 334
306 308 310 313 316 318 319 319 319 319 319 319 319 318 318 319 321 330 327 325 322 323 325 330 330 331 331 331 331 330 323 321 327 328 330 332 332 334 334 330 334 334 333
302 304 308 311 314 317 318 318 319 320 319 319 319 319 318 320 320 320 321 322 322 325 326 329 331 330 330 331 331 331 330 325 319 326 329 331 332 333 333 332 333 332 334
296 299 305 308 311 314 314 316 316 317 317 317 318 318 318 319 320 320 320 321 322 323 324 326 327 332 331 332 332 331 332 333 326 320 327 327 330 332 331 326 326 330 331
293 296 300 303 306 308 310 311 312 310 312 313 315 315 316 317 317 319 319 320 320 320 321 323 326 329 330 330 332 333 333 333 332 320 323 325 329 330 331 331 327 331 330
291 292 295 298 301 302 303 305 305 305 305 306 308 311 312 311 313 314 316 316 317 318 319 320 322 322 327 330 332 332 332 332 333 331 324 323 326 328 328 328 328 330 332
290 289 291 292 295 298 299 299 301 299 295 294 299 300 301 301 303 307 310 312 313 315 316 318 319 321 322 323 325 327 331 332 332 332 331 324 322 323 323 323 323 328 333
289 289 288 289 289 291 293 292 292 294 293 291 290 291 291 291 292 294 299 302 305 309 312 313 315 317 319 320 322 323 323 329 331 332 332 327 323 322 322 321 321 326 336
288 288 288 288 288 289 289 289 289 289 291 291 289 289 289 289 289 290 291 293 294 296 304 309 312 314 316 318 319 320 321 322 323 326 330 332 328 324 326 323 321 326 335
288 288 288 288 289 289 288 288 288 288 288 289 288 288 288 288 288 288 288 289 290 291 292 295 299 306 310 312 314 317 319 320 321 322 324 324 329 331 328 328 327 323 331
287 287 287 287 287 288 288 288 288 287 287 287 287 287 287 287 287 287 287 288 289 289 289 290 291 293 297 306 310 313 315 318 319 320 322 324 325 326 330 330 329 329 324
287 287 287 287 287 287 287 287 287 287 286 286 286 286 286 286 286 286 286 286 287 287 288 288 289 290 291 300 305 310 313 314 316 318 320 320 320 322 323 324 330 329 329
287 287 286 286 285 285 285 285 285 285 285 285 285 284 285 285 285 285 285 285 285 285 286 287 289 290 291 296 297 305 307 311 312 313 316 318 318 317 317 320 323 327 330
286 286 285 285 285 284 284 284 283 283 284 284 284 283 283 283 283 284 284 284 284 284 285 285 287 288 291 291 292 299 310 312 313 315 316 317 317 317 317 318 319 322 323
286 285 285 285 284 284 283 283 283 283 283 283 282 282 282 282 282 282 283 283 283 284 284 284 285 287 288 289 292 298 307 313 306 312 315 314 314 316 318 318 319 320 322
285 285 284 284 283 283 283 282 282 282 282 282 281 281 281 282 282 282 282 282 283 283 283 284 285 284 287 287 287 291 293 294 304 307 309 311 312 313 313 315 319 321 322
285 284 284 283 283 282 282 282 281 281 281 281 281 281 281 281 281 281 282 282 282 282 283 283 284 284 284 285 286 287 289 290 292 296 299 306 309 311 312 313 313 316 320
284 284 283 283 282 282 281 281 281 280 280 280 280 280 280 281 281 281 281 281 282 282 282 282 283 283 284 284 285 286 287 288 290 291 296 297 302 305 308 310 313 314 313
Wind_Speed
11 11 10 13 15 14 14 14 14 14 14 14 14 14 14 13 11 11 11 11 11 11 12 10 10 9 10 9 11 13 13 14 13 12 12 13 12 13 13 13 14 17 17
15 13 13 13 14 14 14 14 13 13 13 12 12 11 10 10 10 10 11 11 11 10 9 8 8 8 9 9 9 11 12 13 13 11 10 10 9 10 12 12 13 15 15
23 19 15 14 14 14 14 13 13 12 11 11 11 11 11 10 10 10 9 9 9 9 8 8 8 8 8 9 8 8 10 11 10 6 8 8 10 12 13 10 11 13 13
24 23 20 16 16 15 14 13 11 11 10 10 10 10 9 9 9 7 6 7 7 7 7 7 7 7 8 8 8 6 6 8 8 7 7 8 7 7 7 8 10 10 10
27 23 23 23 21 18 16 14 13 12 11 10 9 8 8 7 7 6 6 5 4 6 6 5 5 6 6 7 7 6 6 6 7 8 7 5 6 6 7 9 9 9 10
25 22 21 22 22 22 21 17 14 13 12 11 10 9 7 6 6 6 5 4 3 4 4 4 4 4 3 4 5 6 6 3 5 5 7 3 5 7 8 8 10 9 9
23 21 19 19 21 21 20 18 17 16 15 13 12 11 9 8 7 7 7 6 4 5 4 4 3 2 2 2 1 2 3 3 2 0 1 3 2 8 8 8 7 8 9
21 19 17 17 18 18 20 17 16 16 15 15 16 16 13 9 8 7 6 7 7 7 7 6 5 5 5 4 4 4 2 3 3 3 3 3 1 9 11 9 7 6 7
21 20 18 16 15 16 18 16 17 16 14 12 13 17 18 10 7 8 9 9 8 9 10 9 9 7 8 7 7 7 6 5 4 4 5 3 3 6 10 8 8 7 8
24 22 21 18 15 16 17 18 18 17 16 15 12 14 15 13 11 7 9 10 12 12 11 10 10 11 10 10 10 9 9 9 8 6 7 5 5 4 8 8 7 6 7
26 25 22 20 18 16 20 19 19 17 15 13 12 13 12 14 14 14 14 10 10 11 12 11 11 11 11 11 11 12 11 11 11 11 7 8 9 7 10 9 7 9 9
28 27 24 22 21 17 20 20 21 20 20 20 18 16 15 15 14 13 13 13 11 12 11 9 12 11 11 14 13 13 14 13 12 14 11 10 13 10 9 11 9 12 13
23 24 23 22 22 21 20 20 21 22 21 23 22 21 20 18 18 18 17 16 15 13 13 13 10 8 11 12 13 14 15 13 14 14 13 11 13 14 13 11 12 15 17
25 25 24 23 23 24 24 25 23 22 22 24 24 24 23 22 21 21 20 19 20 20 17 15 13 11 8 10 12 14 15 17 17 16 15 12 15 17 17 15 17 18 20
26 26 27 26 26 25 25 25 25 26 26 26 24 24 23 23 23 21 20 19 20 20 21 20 17 14 13 12 12 14 15 15 16 19 18 19 18 19 19 20 19 18 18
24 26 27 29 28 28 27 27 27 25 24 25 27 26 25 26 25 24 22 23 22 22 21 20 20 19 16 15 14 13 14 16 17 16 18 19 20 20 20 20 20 18 18
23 24 26 28 27 28 28 27 26 27 24 25 27 26 26 27 27 26 24 24 25 24 22 22 22 21 20 18 17 15 14 15 16 18 16 19 19 23 21 21 22 21 20
20 23 22 23 25 25 25 25 25 24 24 22 25 26 26 26 26 27 27 26 25 25 24 24 24 24 24 23 24 21 19 17 17 17 16 18 20 21 22 23 22 23 23
17 19 22 23 26 25 24 23 23 23 25 23 25 26 26 26 27 26 25 26 27 27 26 26 26 24 26 27 26 26 25 22 21 18 18 18 18 20 22 23 26 25 24
17 19 21 22 24 25 25 25 25 26 25 24 25 26 26 27 27 27 26 26 26 28 28 28 28 26 25 22 27 28 25 25 24 23 23 23 23 22 22 24 27 28 28
16 19 21 23 25 28 30 32 32 33 27 27 28 28 27 27 27 27 26 27 27 27 26 26 24 28 26 22 20 20 26 30 27 28 28 28 28 28 27 28 25 29 31
14 17 19 19 22 24 26 25 24 25 25 23 29 29 28 28 26 25 25 27 27 29 28 25 23 23 18 19 13 17 4 12 16 17 18 22 24 22 26 27 28 27 28
13 15 17 18 21 22 24 25 26 25 27 26 32 32 31 29 29 26 25 25 25 26 25 27 24 17 19 23 11 8 4 3 12 14 15 24 23 13 15 21 25 27 27
10 13 15 16 20 22 23 25 26 26 24 28 30 30 32 30 29 28 28 26 26 26 23 25 20 23 16 19 21 8 17 15 4 6 16 27 29 31 29 20 16 22 25
9 12 16 19 23 24 25 24 25 25 26 28 27 27 26 26 25 26 26 28 27 27 25 24 25 22 21 18 19 19 17 18 18 10 11 16 27 27 26 28 25 22 19
10 14 19 21 22 23 23 23 23 24 26 24 26 26 26 26 27 27 26 25 25 26 26 27 25 25 25 23 21 21 20 13 12 12 6 16 16 23 25 27 29 31 29
Wind_Direction
69 73 76 75 75 77 75 72 74 73 77 76 78 81 80 79 75 71 70 70 69 67 66 71 68 60 58 78 81 85 84 85 85 93 93 97 96 104 113 115 113 115 110
82 68 67 74 76 74 69 71 72 73 74 73 75 74 73 78 83 85 83 77 74 72 72 68 61 62 62 73 94 88 90 90 87 90 98 92 94 99 109 116 120 115 112
71 66 64 67 71 70 67 67 66 66 66 65 66 66 65 72 79 88 92 91 84 80 75 73 73 68 63 71 89 98 91 92 80 70 94 104 97 111 111 121 123 115 115
75 68 57 58 61 63 64 63 63 64 61 60 62 63 64 60 62 60 84 78 76 73 73 71 76 75 73 72 75 96 103 91 67 59 136 126 116 126 127 133 120 121 121
78 75 66 57 50 51 52 53 51 49 50 50 51 49 49 48 47 47 42 42 46 49 52 54 55 70 72 77 80 84 108 69 59 88 101 129 149 148 143 132 131 136 139
72 73 70 64 55 50 40 44 44 44 41 37 35 33 30 29 24 23 25 24 19 24 24 31 35 30 53 67 85 95 134 84 53 76 87 100 204 177 159 161 151 152 153
64 68 66 64 59 57 49 47 43 40 37 35 31 24 17 13 11 9 5 3 353 345 346 341 340 335 333 334 7 76 145 166 145 94 34 354 205 190 170 161 161 161 166
61 62 64 64 61 57 53 53 46 36 32 34 32 24 13 5 12 13 2 347 339 330 324 320 304 299 294 294 288 276 267 244 193 209 226 305 351 203 177 174 173 174 183
55 58 57 59 60 61 58 60 58 53 47 31 35 37 34 27 12 7 358 353 347 334 319 309 302 290 282 284 288 283 265 258 254 211 218 250 279 216 193 181 183 185 190
49 48 48 51 56 61 55 60 65 68 66 63 57 43 36 37 38 21 349 342 344 339 323 311 305 300 290 281 282 285 282 260 250 243 242 217 239 234 205 198 192 198 194
46 45 46 47 49 56 53 56 60 64 60 54 47 38 37 40 49 44 31 358 337 337 340 332 317 302 298 292 286 282 280 272 254 251 239 244 238 234 217 210 207 214 209
40 42 46 48 50 54 56 55 57 54 50 44 38 31 29 27 31 30 34 37 29 12 355 339 306 304 305 300 290 282 276 275 267 245 247 259 234 242 236 223 234 234 219
46 48 48 53 54 53 54 54 53 45 42 38 33 27 21 15 15 18 21 21 18 16 14 4 354 322 312 314 305 292 279 271 276 260 243 249 227 239 249 260 239 245 226
52 50 50 52 56 56 58 57 55 48 38 33 29 21 15 12 12 11 10 10 10 10 5 2 353 346 328 313 307 302 295 287 272 270 254 246 230 234 245 247 246 244 238
58 54 52 54 56 57 56 54 51 47 43 39 34 31 24 21 17 12 9 4 2 1 4 359 351 339 332 330 324 315 298 290 284 266 266 255 242 238 239 247 250 248 235
56 54 53 53 54 55 54 52 48 45 42 40 35 30 26 22 17 13 9 5 -0 358 352 350 347 342 337 332 318 317 305 297 288 284 263 254 249 249 250 252 249 241 227
56 53 52 50 50 50 50 48 45 40 37 33 26 24 21 17 13 10 6 1 358 355 350 342 336 334 333 328 323 317 305 299 294 284 281 256 247 249 255 255 253 241 228
63 57 54 50 47 45 43 42 38 34 33 28 18 16 14 10 7 4 2 359 354 351 350 346 345 336 329 327 324 313 307 304 298 288 277 274 267 252 247 250 251 246 238
61 54 48 43 38 34 33 31 30 28 24 18 13 11 7 4 2 359 357 353 350 348 348 346 339 342 333 328 322 312 302 297 296 289 280 274 270 264 259 250 249 248 244
52 48 43 37 30 25 20 17 15 15 12 9 6 4 0 357 356 354 351 348 344 341 341 342 340 334 332 331 324 310 304 296 287 280 278 274 272 268 266 262 253 247 246
50 41 34 29 24 18 16 9 4 0 359 359 355 354 353 351 350 349 345 343 342 339 335 337 338 339 336 340 337 327 310 295 290 279 272 271 272 270 268 265 263 257 254
45 37 29 25 19 14 10 6 2 353 349 349 345 346 346 344 343 342 340 337 336 334 332 332 333 337 327 332 325 305 296 314 290 278 273 269 270 277 272 263 261 260 260
41 29 21 18 9 5 1 357 354 351 345 342 341 339 339 338 336 336 333 331 328 327 323 324 325 325 318 319 328 307 308 296 345 303 293 298 302 295 293 270 260 260 263
37 22 13 4 1 358 357 355 353 348 338 331 330 330 330 332 331 329 326 325 319 318 313 314 312 313 311 308 314 285 287 305 311 312 285 296 301 296 292 285 279 263 259
27 9 1 357 357 355 350 348 343 336 330 327 323 320 319 319 317 317 315 316 314 311 307 303 303 301 298 292 290 293 293 288 279 265 285 283 284 287 291 289 280 276 270
8 1 356 350 347 344 342 338 335 328 325 316 318 314 312 312 310 309 308 304 301 299 297 298 293 291 289 287 280 279 280 276 285 283 300 299 294 298 296 300 291 282 274